World > North America > United States > New Jersey

Clermont, New Jersey Regional Weather

Lat: 39.15N, Lon: 74.76W
Wx Zone: NJZ023
Warning FLW WEATHER ALERT - EXCESSIVE HEAT WARNING (More Info. Click Here) Warning
Feedback

Clermont, NJ Regional Weather

Expires:201907211900;;415425
ASUS41 KPHI 211812
RWRPHI

REGIONAL WEATHER ROUNDUP
NATIONAL WEATHER SERVICE MOUNT HOLLY NJ
200 PM EDT SUN JUL 21 2019

NOTE:  "FAIR" INDICATES FEW OR NO CLOUDS BELOW 12,000 FEET WITH NO
SIGNIFICANT WEATHER AND/OR OBSTRUCTIONS TO VISIBILITY.

 * = STATION DOES NOT REPORT PRECIPITATION (E.G. RAIN, SNOW, ETC.) 
        OR FOG.


NJZ015>026-211900-
SOUTHERN NEW JERSEY
  
CITY           SKY/WX    TMP DP  RH WIND       PRES   REMARKS
POMONA         FAIR     100  73  41 W9G22     29.83F HX 110           
6HR MIN TEMP:  85; 6HR MAX TEMP: 100;                                

WILDWOOD*      FAIR      93  77  59 W10       29.86F HX 107           
MILLVILLE      FAIR      96  77  54 W9        29.85S HX 111           
WRIGHTSTOWN    FAIR      98  71  42 W12G20    29.80F HX 106           
MOUNT HOLLY    FAIR      97  72  44 VRB6      29.81F HX 105           
TRENTON        FAIR      95  74  50 W8        29.81F HX 105           
6HR MIN TEMP:  84; 6HR MAX TEMP:  96;                                


$$

SKY/WX - Weather  TMP - Temperature  DP - Dew Point  RH - Relative Humidity
WIND - Wind Direction/Speed PRES - Barometric Pressure VSB - Visibility
WCI - Wind Chill Index E13G22 Wind - East Wind 13 mph/Gusts of 22 mph